Smyrna, TN

8:47 PM CDT on July 22, 2017 (GMT -0500)
Smyrna

Weather History for KMQY - September, 2013

Change the Weather History Date:

Tuesday, September 3, 2013

  Actual Average Record
Temperature  
Mean Temperature 78 °F -  
Max Temperature 88 °F 84 °F 106 °F (2011)
Min Temperature 68 °F 66 °F 33 °F (1996)
Cooling Degree Days 13    
Growing Degree Days 28 (Base 50)    
Moisture  
Dew Point 68 °F    
Average Humidity 76    
Maximum Humidity 100    
Minimum Humidity 43    
Precipitation  
Precipitation 0.00 in - - ()
Sea Level Pressure  
Sea Level Pressure 29.99 in    
Wind  
Wind Speed 3 mph (North)    
Max Wind Speed 10 mph    
Max Gust Speed -    
Visibility 10 miles    
Events      
Averages and records for this station are not official NWS values.
T = Trace of Precipitation, MM = Missing Value Source: NWS Daily Summary

Daily Weather History Graph

Daily Weather History Graph

Search for Another Location

Airport or City:

Trip Planner

Search our weather history database for the weather conditions in past years. The results will help you decide how hot, cold, wet, or windy it might be!

Date:

Astronomy

Sep. 03, 2013 Rise Set
Actual Time 6:19 AM CDT 7:10 PM CDT
Civil Twilight 5:53 AM CDT 7:36 PM CDT
Nautical Twilight 5:22 AM CDT 8:07 PM CDT
Astronomical Twilight 4:50 AM CDT 8:39 PM CDT
Moon 4:34 AM CDT (9/3) 5:56 PM CDT (9/3)
Length of Visible Light 13h 43m
Length of Day
12h 50m
Waning Crescent, 3% of the Moon is Illuminated
Sep 3
Waning Crescent
Sep 5
New
Sep 12
First Quarter
Sep 19
Full
Sep 26
Last Quarter

Hourly Weather History & Observations

Time (CDT) Temp. Heat Index Dew Point Humidity Pressure Visibility Wind Dir Wind Speed Gust Speed Precip Events Conditions
12:56 AM 74.8 °F - 72.9 °F 94% 29.93 in 10.0 mi Calm Calm - N/A   Mostly Cloudy
1:10 AM 75.2 °F - 73.4 °F 94% 29.93 in 10.0 mi Calm Calm - N/A   Overcast
1:26 AM 75.2 °F - 73.4 °F 94% 29.92 in 10.0 mi Calm Calm - N/A   Mostly Cloudy
1:56 AM 74.8 °F - 72.9 °F 94% 29.94 in 10.0 mi Calm Calm - N/A   Partly Cloudy
2:56 AM 72.9 °F - 72.0 °F 97% 29.94 in 10.0 mi Calm Calm - N/A   Partly Cloudy
3:56 AM 70.9 °F - 70.9 °F 100% 29.94 in 9.0 mi Calm Calm - N/A   Clear
4:56 AM 70.9 °F - 70.9 °F 100% 29.95 in 9.0 mi Calm Calm - N/A   Partly Cloudy
5:56 AM 70.9 °F - 70.9 °F 100% 29.98 in 7.0 mi Calm Calm - N/A   Mostly Cloudy
6:56 AM 70.0 °F - 68.9 °F 96% 30.00 in 8.0 mi Calm Calm - N/A   Clear
7:56 AM 72.9 °F - 70.0 °F 91% 30.01 in 10.0 mi NW 5.8 mph - N/A   Clear
8:56 AM 75.9 °F - 70.0 °F 82% 30.02 in 10.0 mi NNW 5.8 mph - N/A   Clear
9:56 AM 79.0 °F - 70.0 °F 74% 30.03 in 10.0 mi NNW 6.9 mph - N/A   Clear
10:56 AM 81.9 °F 85.2 °F 68.9 °F 65% 30.02 in 10.0 mi NNE 6.9 mph - N/A   Partly Cloudy
11:56 AM 82.9 °F 85.8 °F 68.0 °F 60% 30.02 in 10.0 mi NNW 6.9 mph - N/A   Scattered Clouds
12:56 PM 84.9 °F 86.6 °F 64.9 °F 51% 30.01 in 10.0 mi North 8.1 mph - N/A   Clear
1:56 PM 86.9 °F 88.9 °F 65.8 °F 49% 30.00 in 10.0 mi North 6.9 mph - N/A   Scattered Clouds
2:56 PM 86.0 °F 87.6 °F 64.9 °F 49% 29.99 in 10.0 mi NNE 10.4 mph - N/A   Partly Cloudy
3:56 PM 88.0 °F 89.0 °F 63.9 °F 44% 29.98 in 10.0 mi NNE 10.4 mph - N/A   Scattered Clouds
4:56 PM 86.9 °F 87.2 °F 61.9 °F 43% 29.98 in 10.0 mi North 10.4 mph - N/A   Scattered Clouds
5:56 PM 84.9 °F 85.4 °F 61.9 °F 46% 29.99 in 10.0 mi NNE 9.2 mph - N/A   Partly Cloudy
6:56 PM 81.0 °F 82.2 °F 63.0 °F 54% 30.00 in 10.0 mi NNE 9.2 mph - N/A   Partly Cloudy
7:56 PM 77.0 °F - 63.9 °F 64% 30.02 in 10.0 mi North 5.8 mph - N/A   Clear
8:56 PM 74.8 °F - 64.9 °F 71% 30.04 in 10.0 mi Calm Calm - N/A   Clear
9:56 PM 70.0 °F - 64.9 °F 84% 30.06 in 10.0 mi Calm Calm - N/A   Clear
10:56 PM 68.9 °F - 64.9 °F 87% 30.07 in 10.0 mi Calm Calm - N/A   Clear
11:56 PM 68.0 °F - 64.9 °F 90% 30.07 in 10.0 mi Calm Calm - N/A   Clear